EN

Hourly Weather Altrincham

Today, 26 January, Tuesday

Time Temperature Precipitation Wind Pressure Humidity
00:00 -1°C° 0 mm 2 mps 756 mmHg 84%
01:00 -1°C° 0 mm 2 mps 756 mmHg 84%
02:00 -1°C° 0 mm 2 mps 756 mmHg 83%
03:00 -1°C° 0 mm 2 mps 756 mmHg 83%
04:00 -1°C° 0 mm 2 mps 756 mmHg 84%
05:00 +1°C° 0 mm 2 mps 756 mmHg 85%
06:00 +1°C° 0 mm 2 mps 756 mmHg 86%
07:00 0°C° 0 mm 3 mps 756 mmHg 86%
08:00 0°C° 0 mm 3 mps 756 mmHg 86%
09:00 +1°C° 0 mm 3 mps 756 mmHg 86%
10:00 0°C° 0.3 mm 4 mps 755 mmHg 89%
11:00 0°C° 0.3 mm 5 mps 755 mmHg 92%
12:00 +1°C° 0.3 mm 5 mps 755 mmHg 95%
13:00 +1°C° 0.4 mm 5 mps 754 mmHg 95%
14:00 +1°C° 0.4 mm 5 mps 753 mmHg 95%
15:00 +1°C° 0.4 mm 5 mps 752 mmHg 95%
16:00 +3°C° 0.1 mm 4 mps 751 mmHg 96%
17:00 +3°C° 0.1 mm 4 mps 751 mmHg 96%
18:00 +3°C° 0.1 mm 3 mps 751 mmHg 96%
19:00 +3°C° 0 mm 3 mps 751 mmHg 97%
20:00 +4°C° 0 mm 3 mps 751 mmHg 97%
21:00 +4°C° 0 mm 3 mps 751 mmHg 97%
22:00 +4°C° 0 mm 3 mps 751 mmHg 96%
23:00 +4°C° 0 mm 3 mps 752 mmHg 95%

Tomorrow, 27 January, Wednesday

Time Temperature Precipitation Wind Pressure Humidity
00:00 +4°C° 0 mm 3 mps 752 mmHg 94%
01:00 +4°C° 0 mm 4 mps 752 mmHg 95%
02:00 +4°C° 0 mm 4 mps 752 mmHg 96%
03:00 +4°C° 0 mm 4 mps 752 mmHg 96%
04:00 +4°C° 0 mm 4 mps 752 mmHg 97%
05:00 +4°C° 0 mm 3 mps 753 mmHg 97%
06:00 +4°C° 0 mm 3 mps 753 mmHg 97%
07:00 +4°C° 0 mm 3 mps 753 mmHg 97%
08:00 +4°C° 0 mm 3 mps 753 mmHg 97%
09:00 +6°C° 0 mm 2 mps 753 mmHg 97%
10:00 +6°C° 0 mm 2 mps 754 mmHg 97%
11:00 +6°C° 0 mm 2 mps 754 mmHg 96%
12:00 +7°C° 0 mm 1 mps 754 mmHg 96%
13:00 +7°C° 0.1 mm 1 mps 754 mmHg 96%
14:00 +7°C° 0.1 mm 1 mps 754 mmHg 96%
15:00 +7°C° 0.1 mm 1 mps 754 mmHg 97%
16:00 +7°C° 0.1 mm 1 mps 754 mmHg 96%
17:00 +7°C° 0.1 mm 1 mps 754 mmHg 96%
18:00 +6°C° 0.1 mm 2 mps 754 mmHg 96%
19:00 +5°C° 0.2 mm 3 mps 754 mmHg 94%
20:00 +4°C° 0.2 mm 4 mps 754 mmHg 93%
21:00 +3°C° 0.2 mm 5 mps 753 mmHg 91%
22:00 +3°C° 1.5 mm 5 mps 753 mmHg 91%
23:00 +3°C° 1.5 mm 6 mps 752 mmHg 92%

Day after tomorrow, 28 January, Thursday

Time Temperature Precipitation Wind Pressure Humidity
00:00 +3°C° 1.5 mm 6 mps 751 mmHg 92%
01:00 +3°C° 2.8 mm 6 mps 750 mmHg 93%
02:00 +4°C° 2.8 mm 6 mps 749 mmHg 93%
03:00 +4°C° 2.8 mm 6 mps 748 mmHg 93%
04:00 +5°C° 1.9 mm 5 mps 747 mmHg 94%
05:00 +5°C° 1.9 mm 4 mps 746 mmHg 95%
06:00 +5°C° 1.9 mm 3 mps 745 mmHg 96%
07:00 +6°C° 1.5 mm 2 mps 745 mmHg 97%
08:00 +7°C° 1.5 mm 2 mps 745 mmHg 97%
09:00 +7°C° 1.5 mm 2 mps 745 mmHg 98%
10:00 +8°C° 0.4 mm 2 mps 745 mmHg 96%
11:00 +8°C° 0.4 mm 3 mps 745 mmHg 95%
12:00 +9°C° 0.4 mm 3 mps 746 mmHg 94%
13:00 +8°C° 0.1 mm 4 mps 745 mmHg 91%
14:00 +8°C° 0.1 mm 4 mps 745 mmHg 89%
15:00 +8°C° 0.1 mm 4 mps 745 mmHg 87%
16:00 +9°C° 0.2 mm 3 mps 744 mmHg 90%
17:00 +8°C° 0.2 mm 2 mps 744 mmHg 92%
18:00 +7°C° 0.2 mm 2 mps 744 mmHg 94%
19:00 +7°C° 2.3 mm 2 mps 744 mmHg 95%
20:00 +7°C° 2.3 mm 2 mps 744 mmHg 96%
21:00 +8°C° 2.3 mm 3 mps 744 mmHg 97%
22:00 +7°C° 0.7 mm 4 mps 744 mmHg 93%
23:00 +7°C° 0.7 mm 6 mps 744 mmHg 89%

29 January, Friday

Time Temperature Precipitation Wind Pressure Humidity
00:00 +6°C° 0.7 mm 7 mps 745 mmHg 85%
01:00 +5°C° 0 mm 6 mps 745 mmHg 87%
02:00 +5°C° 0 mm 6 mps 745 mmHg 88%
03:00 +6°C° 0 mm 5 mps 746 mmHg 90%
04:00 +6°C° 0.1 mm 5 mps 746 mmHg 90%
05:00 +6°C° 0.1 mm 5 mps 746 mmHg 90%
06:00 +6°C° 0.1 mm 4 mps 747 mmHg 90%
07:00 +6°C° 0.1 mm 4 mps 747 mmHg 90%
08:00 +6°C° 0.1 mm 4 mps 747 mmHg 90%
09:00 +5°C° 0.1 mm 4 mps 747 mmHg 90%
10:00 +6°C° 0.1 mm 5 mps 747 mmHg 87%
11:00 +7°C° 0.1 mm 5 mps 748 mmHg 85%
12:00 +7°C° 0.1 mm 6 mps 748 mmHg 82%
13:00 +7°C° 0.2 mm 5 mps 748 mmHg 83%
14:00 +7°C° 0.2 mm 5 mps 749 mmHg 84%
15:00 +7°C° 0.2 mm 5 mps 749 mmHg 86%
16:00 +6°C° 0.2 mm 4 mps 749 mmHg 87%
17:00 +6°C° 0.2 mm 4 mps 750 mmHg 89%
18:00 +6°C° 0.2 mm 4 mps 750 mmHg 90%
19:00 +7°C° 0 mm 3 mps 750 mmHg 91%
20:00 +5°C° 0 mm 3 mps 750 mmHg 92%
21:00 +6°C° 0 mm 2 mps 750 mmHg 92%
22:00 +6°C° 0 mm 2 mps 751 mmHg 93%
23:00 +6°C° 0 mm 1 mps 751 mmHg 94%

30 January, Saturday

Time Temperature Precipitation Wind Pressure Humidity
00:00 +5°C° 0 mm 0 mps 751 mmHg 95%
01:00 +5°C° 0 mm 0 mps 751 mmHg 95%
02:00 +5°C° 0 mm 0 mps 751 mmHg 95%
03:00 +5°C° 0 mm 0 mps 750 mmHg 95%
04:00 +5°C° 0 mm 1 mps 750 mmHg 94%
05:00 +5°C° 0 mm 1 mps 750 mmHg 94%
06:00 +5°C° 0 mm 1 mps 750 mmHg 94%
07:00 +5°C° 0 mm 1 mps 751 mmHg 93%
08:00 +5°C° 0 mm 1 mps 751 mmHg 93%
09:00 +5°C° 0 mm 1 mps 751 mmHg 92%
10:00 +5°C° 0 mm 2 mps 751 mmHg 89%
11:00 +5°C° 0 mm 2 mps 751 mmHg 86%
12:00 +6°C° 0 mm 2 mps 751 mmHg 83%
13:00 +6°C° 0 mm 2 mps 751 mmHg 82%
14:00 +6°C° 0 mm 2 mps 751 mmHg 82%
15:00 +6°C° 0 mm 2 mps 751 mmHg 82%
16:00 +6°C° 0 mm 2 mps 751 mmHg 84%
17:00 +6°C° 0 mm 2 mps 750 mmHg 86%
18:00 +5°C° 0 mm 2 mps 750 mmHg 89%
19:00 +5°C° 0.1 mm 2 mps 750 mmHg 90%
20:00 +5°C° 0.1 mm 2 mps 750 mmHg 90%
21:00 +5°C° 0.1 mm 2 mps 749 mmHg 91%
22:00 +4°C° 0 mm 3 mps 748 mmHg 91%
23:00 +4°C° 0 mm 4 mps 747 mmHg 90%

31 January, Sunday

Time Temperature Precipitation Wind Pressure Humidity
00:00 +4°C° 0 mm 4 mps 746 mmHg 89%
01:00 +3°C° 0.4 mm 5 mps 745 mmHg 90%
02:00 +3°C° 0.4 mm 5 mps 744 mmHg 91%
03:00 +3°C° 0.4 mm 5 mps 742 mmHg 92%
04:00 +3°C° 1.8 mm 6 mps 740 mmHg 92%
05:00 +4°C° 1.8 mm 6 mps 739 mmHg 91%
06:00 +4°C° 1.8 mm 7 mps 737 mmHg 90%
07:00 +4°C° 1 mm 7 mps 735 mmHg 91%
08:00 +4°C° 1 mm 6 mps 734 mmHg 91%
09:00 +5°C° 1 mm 6 mps 733 mmHg 91%
10:00 +5°C° 1.6 mm 6 mps 732 mmHg 93%
11:00 +6°C° 1.6 mm 5 mps 732 mmHg 94%
12:00 +6°C° 1.6 mm 4 mps 731 mmHg 95%
13:00 +8°C° 0.6 mm 3 mps 731 mmHg 96%
14:00 +8°C° 0.6 mm 3 mps 731 mmHg 96%
15:00 +8°C° 0.6 mm 2 mps 731 mmHg 96%
16:00 +8°C° 0.2 mm 2 mps 731 mmHg 96%
17:00 +8°C° 0.2 mm 2 mps 732 mmHg 96%
18:00 +8°C° 0.2 mm 2 mps 732 mmHg 96%
19:00 +8°C° 0.5 mm 3 mps 733 mmHg 96%
20:00 +8°C° 0.5 mm 3 mps 734 mmHg 96%
21:00 +7°C° 0.5 mm 4 mps 734 mmHg 96%
22:00 +7°C° 0.2 mm 5 mps 735 mmHg 93%
23:00 +7°C° 0.2 mm 6 mps 736 mmHg 91%
Show more